THOR AGENA D R/B, 2825

Orbit data source: Space-Track

THOR AGENA D R/B, 2825 is space debris in LEO originally from a launch on Wed, 31 May 1967 UTC launched from the Air Force Western Test Range (AFWTR). Debris objects in space refer to the collection of defunct objects orbiting the Earth. Examples of debris include non-operational satellites, rocket bodies, and fragments generated from explosions, collisions, or faulty payload assembly.

Loading next visibility...
Identifier
2825, 1967-053B
Orbit
LEO
Last TLE update
17 hours ago
Origin
Manufacturer
LMSC
Mission
Spacecraft
Bus & Motor
AGENA D, Unknown motor
Mass
600 kg wet, 600 kg dry
Launch date (UTC)
1967-05-31 (58 years ago)
Launch vehicle
Unknown
Launch site
Air Force Western Test Range (AFWTR)
Object type
Payload
Rocket body
Debris
Shape & HBR
Cyl + 1 Nozzle, 6.3 m
Radar Cross Section
8.306 m², Large (>1 m²)

Expand to show TLE details & history

TLE from 17 hours ago
0 THOR AGENA D R/B
1 02825U 67053B   25128.66363683  .00000069  00000-0  86886-4 0  9992
2 02825  69.9722 221.9303 0008340 321.3893  38.6616 13.97627793 35572
Epoch: 2025-05-08T15:55Z
Definitive object data (Epoch: 2025-05-08T15:55:38.222Z)
Latitude
-0.00001°
Longitude
116.29014°
Altitude
899.594 km
Speed
7.405 km/s
True Right ascension
14h 47m 43s
True Declination
0° 00' 00"
Sunlit
Object was in full shadow at TLE epoch
Visualization TLE readout
Latitude
-66.60149°
Longitude
57.85714°
Altitude
921.851 km
Speed
7.393 km/s
Apparent Right ascension
06h 56m 10s
Apparent Declination
-62° 06' 38"
Sunlit
Object is in daylight
Visualization observer readout
Local Sidereal Time
16:53:16
Azimuth
209.648° SW
Elevation
-61.11°
Doppler factor
1
Orbital elements
Apogee altitude
906.136 km
Perigee altitude
893.996 km
Semi-major axis
7,278.203 km
Eccentricity
0.000834
Inclination
69.9722°
RAAN
221.9303°
Arg. of periapsis
321.3893°
True anomaly
38.72135°
Mean anomaly
38.6616°
Eccentric anomaly
38.69147°
Mean motion
3.49548 °/min
BSTAR
0.000086886
Orbital period
102.99 mins
Loading maneuver chart data...
Loading SW <> Apogee altitude chart data...
Loading historical data...
Loading historical data...
Loading historical data...
Loading historical data...
Loading historical data...
Loading historical data...
Loading historical data...

THOR AGENA D R/B Visibility forecast

Observer location: undefined°, undefined°

Span
Click to sort rows by Start time (UTC) header in descending order
Start Az.
Max El. time (UTC)
Max El. Az.
Max El.
End time (UTC)
End Az.
7 mins2025-05-09 09:18:03.983Z273.788° WNW2025-05-09 09:21:03.983Z306.646° NW17.331°2025-05-09 09:25:03.983Z351.186° N
10 mins2025-05-09 16:32:03.983Z351.921° N2025-05-09 16:37:03.983Z72.329° E34.769°2025-05-09 16:42:03.983Z130.774° SE
8 mins2025-05-09 18:18:03.983Z304.783° NW2025-05-09 18:22:03.983Z252.718° W24.564°2025-05-09 18:26:03.983Z205.132° SW
4 mins2025-05-10 05:52:03.983Z116.116° SE2025-05-10 05:54:03.983Z94.425° ESE13.397°2025-05-10 05:56:03.983Z73.687° E
10 mins2025-05-10 07:34:03.983Z208.622° SW2025-05-10 07:38:03.983Z249.347° W44.187°2025-05-10 07:44:03.983Z22.352° NNE
|